If you wish to contribute or participate in the discussions about articles you are invited to join SKYbrary as a registered user

 Actions

Almirante Padilla Airport

From SKYbrary Wiki

SKRH
Airport
ICAO: SKRH – IATA: RCH
Summary
Name Almirante Padilla Airport
Region South America and Caribbean
Territory Colombia CO.gif
Location Riohacha, Guajira Department
Serving Riohacha
Elevation 13.106 m
43 ft13.106 m
Coordinates 11° 31' 42.96" N, 72° 55' 9.02" W
Runways
Designator Length Width Surface ROPS
9/27 1650 m5,413.386 ft
30 m98.425 ft
ASP /
10/28 0 m0 ft
0 m0 ft
UNK yes/yes


METAR
Observation SKRH 221900Z 03014KT 9999 FEW020 31/25 A2979
Station Riohacha / Almirante Padilla
Date/Time 22 August 2019 19:00:00
Wind direction 30°
Wind speed 14 kts
Lowest cloud amount few clouds
Temperature 31°C
Dew point 25°C
Humidity 70%
QNH hPa
Weather condition n/a

Almirante Padilla Airport is an airport serving the Caribbean coastal city of Riohacha in the Guajira Department of Colombia. The airport is on the southwestern edge of the city.

Climatology

Semi-arid climate (Köppen climate classification BSh)

Maps

Terrain

Loading map...

Airport Layout

Loading map...


Accidents & Serious Incidents at or in vicinity of SKRH

None on SKYbrary